星链-31297 (STARLINK-31297 )

导读

STARLINK-31297是美国SpaceX公司星链(Starlink)星座中的一颗卫星,于2024年3月4日发射升空,隶属于星链第二代卫星组网计划。星链星座旨在为全球提供高速低延迟的宽带互联网服务,重点覆盖传统基础设施缺失的偏远地区,助力全球互联网普及。目前星链已发展出多代卫星技术,截至2025年已拥有超7800颗在轨卫星,服务超600万全球用户,持续向千兆网速方向升级。

基本信息
目录编号:
59158
目录名称:
STARLINK-31297
国际标识:
2024-044G
轨道中心:
EARTH
卫星名称:
星链-31297
卫星全名:
星链-31297 (STARLINK-31297 )
卫星状态:
在轨 (已飞行921 天)
发射日期:
2024-03-04 UTC
国别 :
美国 (US)
星等 :
--
该卫星已列入 空间交会检测服务 Space Conjunction Data Service (SCDS) ,当前飞行风险评估等级: 无高风险
轨道信息
数据来源 国际轨道数据 AOE轨道数据
星历时间 2026-09-11T17:14:05+0800
11小时前
查看轨道信息
2026-09-05T22:00:00+0800
6天前
查看轨道信息
半长轴 6861.209km 6861.161km
偏心率 0.0001158 0.0001648
轨道倾角 43.002° 43.002°
近地点辐角 269.576° 246.685°
升交点赤经 138.457° 171.224°
平近点角 90.496° 212.242°
近地点 482.277km 481.893km
远地点 483.867km 484.155km
周期 94.267分钟 94.266分钟
每日圈数 15.275726 15.275884
详细信息
固有亮度:
5
最大亮度:
0.3
卫星平台:
Starlink v2.0 mini
覆盖范围:
全球
运营商:
太空探索技术公司
运营商所在国:
美国
制造商(研发单位):
太空探索技术公司
制造商所在国:
美国
使用方式:
暂无
卫星简介
星链(Starlink)计划是由太空探索技术公司(SpaceX)提出的一个巨型低轨卫星互联网星座项目,计划在2019年至2024年间在太空搭建由约1.2万颗卫星组成的“星链”网络,其中1584颗将部署在地球上空550千米处的近地轨道,并从2020年开始工作。该卫星仍在工作。
2D轨道图
3D轨道图
轨道高度分析图
轨道倾角分析图
轨道综合分析图
查看轨道综合分析图
交会数据列表
事件ID 空间交会对象 最接近时刻(TCA) 交会距离 交会风险概率(CRP) 交会风险指数(CRI) 操作
CDM_260913-224105-915806-409522
2026-09-13T
22:41:40+0000
0.875 km
远距离
3.499345E-5 中风险 0.66
CDM_260913-162705-915806-379021
2026-09-13T
16:27:37+0000
0.959 km
远距离
1.42301E-5 中风险 0.58
CDM_260912-181705-915806-731822
2026-09-12T
18:17:58+0000
1.154 km
极远距离
1.237946E-5 中风险 0.57
CDM_260913-122005-915806-731821
2026-09-13T
12:20:44+0000
1.178 km
极远距离
1.150442E-5 中风险 0.56
CDM_260913-202305-915806-379022
2026-09-13T
20:23:00+0000
1.050 km
极远距离
1.041904E-5 中风险 0.55
CDM_260912-195205-915806-731822
2026-09-12T
19:52:08+0000
1.220 km
极远距离
1.018843E-5 中风险 0.55
CDM_260913-104605-915806-731822
2026-09-13T
10:46:35+0000
1.331 km
极远距离
7.559933E-6 低风险 0.53
CDM_260914-014005-915806-358921
2026-09-14T
01:40:32+0000
1.635 km
极远距离
3.903101E-6 低风险 0.47
CDM_260913-215405-915806-409521
2026-09-13T
21:54:33+0000
2.269 km
极远距离
1.791007E-6 低风险 0.4
CDM_260913-145305-915806-379022
2026-09-13T
14:53:28+0000
2.984 km
极远距离
7.213274E-7 极低风险 0.32
与全量物体交会距离演化趋势
与全量物体交会风险概率演化趋势